Location: Moscow
(30.9132°N, 94.8252°W)
Time: 12:51:37
(UTC+00:00)

SKYMED 2 - Pass Details

Date: 15 November 2025
Orbit: 621 x 623 km, 97.9° (Epoch: 11 December)

Event Time Altitude Azimuth Distance (km) Brightness Sun altitude
Rises 11:47:25 0° 172° (S) 2,888 7.3 -12.9°
Reaches altitude 10° 11:49:36 10° 174° (S) 1,985 6.4 -12.4°
Maximum altitude 11:53:54 72° 258° (WSW) 657 3.5 -11.5°
Drops below altitude 10° 11:58:14 10° 343° (NNW) 1,996 5.9 -10.6°
Sets 12:00:27 0° 346° (NNW) 2,906 6.7 -10.2°
